Torna al catalogo

CZ-6A DEB

AttivoPO
NORAD 55530·DEBRIS·🇨🇳 China

Lanciato Nov 11, 2022 da Taiyuan Satellite Launch Center

Loading…

Prossimi Passaggi (prossime 24 ore)

TLE

AggiornatoSource: Space-Track

Epoca: Sep 14, 2026, 13:23 UTC

1 55530U 22151YC  26257.55810554  .00067970  00000-0  32413-2 0  9998
2 55530  98.6025   7.4329 0037146 219.8868 139.9632 15.18202463200566

Traccia CZ-6A DEB in tempo reale con AllMySat

Download on the App Store